GW3548 Weather Reports


Display with metric or nautical units.
time (UTC)temp
F
wind
direction
speed
MPH
gust
MPH
rain 1hr
in
rain 24hr
in
rain mn
in
humidity
%
barometer
mb
20260505004123 58 307 1.0 3.0 0.00 0.02 0.02 60 1008.2
20260505003621 58 295 2.0 3.0 0.00 0.02 0.02 58 1008.4
20260505003118 58 250 2.0 2.0 0.00 0.02 0.02 60 1008.4
20260505002614 58 280 0.0 2.0 0.00 0.02 0.02 63 1008.4
20260505002112 57 60 0.0 0.0 0.00 0.02 0.02 67 1008.4
20260505001609 57 74 0.0 0.0 0.00 0.02 0.02 65 1008.6
20260505001107 57 67 0.0 0.0 0.00 0.02 0.02 68 1008.3
20260505000603 57 117 0.0 0.0 0.00 0.02 0.02 70 1008.6
20260504235557 57 134 2.0 3.0 0.00 0.02 0.02 65 1008.7
20260504235054 55 45 1.0 3.0 0.07 0.02 0.02 61 1008.6
20260504234551 55 151 5.0 10.0 0.14 0.02 0.02 74 1008.7
20260504234049 55 167 3.0 3.0 0.07 0.01 0.01 65 1008.9
20260504233544 58 179 10.0 10.0 0.00 0.00 0.00 67 1008.7
20260504233041 59 233 13.0 15.0 0.00 0.00 0.00 54 1008.9
20260504232538 59 166 8.0 10.0 0.00 0.00 0.00 51 1008.3
20260504232036 60 175 16.0 24.0 0.00 0.00 0.00 50 1008.2
20260504231532 64 211 17.0 21.0 0.00 0.00 0.00 40 1007.8
20260504231028 64 263 5.0 9.0 0.00 0.00 0.00 37 1007.4
20260504230524 65 255 0.0 0.0 0.00 0.00 0.00 36 1007.4
20260504230023 65 276 0.0 0.0 0.00 0.00 0.00 36 1007.1
20260504225520 65 282 3.0 5.0 0.00 0.00 0.00 36 1007.1
20260504225017 65 340 8.0 9.0 0.00 0.00 0.00 35 1007.0
20260504224514 66 348 12.0 14.0 0.00 0.00 0.00 35 1007.0
20260504224011 66 294 5.0 5.0 0.00 0.00 0.00 35 1007.2
20260504223507 66 341 5.0 9.0 0.00 0.00 0.00 34 1007.1
20260504223003 66 297 6.0 9.0 0.00 0.00 0.00 35 1007.1
20260504222500 66 305 7.0 10.0 0.00 0.00 0.00 34 1007.1
20260504221958 66 323 7.0 9.0 0.00 0.00 0.00 35 1006.6
20260504221455 66 316 9.0 12.0 0.00 0.00 0.00 34 1007.0
20260504220952 66 303 0.0 0.0 0.00 0.00 0.00 35 1006.8
20260504220448 66 312 6.0 10.0 0.00 0.00 0.00 35 1007.2
20260504215945 66 265 10.0 12.0 0.00 0.00 0.00 36 1007.5
20260504215442 65 291 7.0 7.0 0.00 0.00 0.00 36 1007.3
20260504214938 65 297 8.0 12.0 0.00 0.00 0.00 36 1007.5
20260504214435 65 271 12.0 17.0 0.00 0.00 0.00 36 1007.6
20260504213932 65 313 12.0 17.0 0.00 0.00 0.00 36 1007.5
20260504213427 65 275 12.0 15.0 0.00 0.00 0.00 36 1007.9
20260504212925 65 312 14.0 17.0 0.00 0.00 0.00 35 1007.5
20260504212421 66 321 12.0 21.0 0.00 0.00 0.00 33 1007.8
20260504211919 66 309 17.0 21.0 0.00 0.00 0.00 33 1007.6
20260504211415 66 295 10.0 14.0 0.00 0.00 0.00 32 1007.8
20260504210912 66 281 8.0 12.0 0.00 0.00 0.00 32 1007.6
20260504210409 67 3 11.0 14.0 0.00 0.00 0.00 31 1007.4
20260504205906 67 211 16.0 27.0 0.00 0.00 0.00 31 1007.3
20260504205404 67 295 4.0 9.0 0.00 0.00 0.00 32 1007.3
20260504204902 68 271 17.0 22.0 0.00 0.00 0.00 32 1007.2
20260504204400 69 288 20.0 26.0 0.00 0.00 0.00 31 1007.1
20260504203859 70 331 18.0 26.0 0.00 0.00 0.00 30 1006.8
20260504203356 69 328 24.0 36.0 0.00 0.00 0.00 29 1007.1
20260504202852 69 311 28.0 36.0 0.00 0.00 0.00 29 1007.0
20260504202349 70 309 21.0 32.0 0.00 0.00 0.00 29 1006.6
20260504201845 70 339 19.0 27.0 0.00 0.00 0.00 29 1007.0
20260504201343 70 291 26.0 36.0 0.00 0.00 0.00 28 1007.1
20260504200840 70 309 17.0 24.0 0.00 0.00 0.00 27 1006.8
20260504200337 69 270 9.0 12.0 0.00 0.00 0.00 28 1006.7
20260504195833 69 345 17.0 27.0 0.00 0.00 0.00 29 1007.0
20260504195329 69 29 25.0 32.0 0.00 0.00 0.00 29 1006.8
20260504194826 71 309 23.0 29.0 0.00 0.00 0.00 27 1006.8
20260504194322 72 280 12.0 19.0 0.00 0.00 0.00 24 1006.5
20260504193818 71 323 17.0 27.0 0.00 0.00 0.00 24 1006.4
20260504193315 73 329 16.0 22.0 0.00 0.00 0.00 24 1006.5
20260504192814 73 282 7.0 10.0 0.00 0.00 0.00 24 1006.4
20260504192312 73 283 5.0 9.0 0.00 0.00 0.00 23 1006.4
20260504191810 73 307 19.0 27.0 0.00 0.00 0.00 24 1006.0
20260504191307 73 257 19.0 22.0 0.00 0.00 0.00 25 1006.2
20260504190802 73 262 15.0 21.0 0.00 0.00 0.00 24 1006.2
20260504190259 73 292 19.0 27.0 0.00 0.00 0.00 24 1006.3
20260504185755 74 256 17.0 21.0 0.00 0.00 0.00 24 1006.3
20260504185252 74 272 10.0 14.0 0.00 0.00 0.00 23 1006.3
20260504184748 73 235 14.0 17.0 0.00 0.00 0.00 24 1006.0
20260504184244 73 236 16.0 21.0 0.00 0.00 0.00 24 1005.9
20260504183740 73 244 14.0 17.0 0.00 0.00 0.00 24 1006.3
20260504183237 72 243 17.0 19.0 0.00 0.00 0.00 25 1006.5
20260504182735 72 231 16.0 26.0 0.00 0.00 0.00 24 1006.5
20260504182232 72 242 16.0 21.0 0.00 0.00 0.00 24 1006.3
20260504181730 72 256 17.0 22.0 0.00 0.00 0.00 24 1006.5
20260504181227 72 282 15.0 19.0 0.00 0.00 0.00 25 1006.5
20260504180726 72 179 3.0 5.0 0.00 0.00 0.00 24 1006.5
20260504180224 71 257 11.0 14.0 0.00 0.00 0.00 25 1006.6
20260504175722 72 234 14.0 19.0 0.00 0.00 0.00 25 1006.6
20260504175218 73 236 12.0 15.0 0.00 0.00 0.00 24 1006.7
20260504174716 72 209 18.0 24.0 0.00 0.00 0.00 24 1006.7
20260504174214 72 242 13.0 21.0 0.00 0.00 0.00 24 1006.7
20260504173710 72 244 20.0 24.0 0.00 0.00 0.00 24 1007.1
20260504173207 71 252 18.0 24.0 0.00 0.00 0.00 24 1006.7
20260504172704 72 214 21.0 24.0 0.00 0.00 0.00 24 1006.8
20260504172200 71 236 21.0 24.0 0.00 0.00 0.00 24 1007.2
20260504171657 71 264 16.0 19.0 0.00 0.00 0.00 24 1007.0
20260504171154 71 240 15.0 17.0 0.00 0.00 0.00 25 1007.1
20260504170650 71 256 19.0 24.0 0.00 0.00 0.00 24 1007.1
20260504170148 71 216 18.0 21.0 0.00 0.00 0.00 24 1007.0
20260504151033 62 218 8.0 10.0 0.00 0.00 0.00 33 1008.0
20260504150531 62 189 5.0 7.0 0.00 0.00 0.00 34 1007.8
20260504140957 51 231 3.0 3.0 0.00 0.00 0.00 42 1008.1
20260504140453 50 211 3.0 3.0 0.00 0.00 0.00 43 1008.7
20260504130418 44 265 3.0 3.0 0.00 0.00 0.00 51 1008.4
20260504110305 41 234 3.0 3.0 0.00 0.00 0.00 60 1008.4
20260504100223 43 219 4.0 5.0 0.00 0.00 0.00 59 1008.6
20260504081616 50 286 4.0 5.0 0.00 0.00 0.00 49 1009.3
20260504081112 50 306 3.0 5.0 0.00 0.00 0.00 49 1009.4
20260504080609 50 298 3.0 3.0 0.00 0.00 0.00 49 1009.4
20260504080105 51 294 4.0 5.0 0.00 0.00 0.00 49 1009.4
20260504050421 56 326 3.0 3.0 0.00 0.00 0.00 41 1009.5
20260504045918 56 315 2.0 2.0 0.00 0.00 0.00 42 1009.6
20260504045414 57 55 2.0 3.0 0.00 0.00 0.00 41 1009.3
20260504044910 57 46 5.0 7.0 0.00 0.00 0.00 41 1009.7
20260504044408 57 52 3.0 5.0 0.00 0.00 0.00 40 1009.4
20260504043906 57 23 5.0 7.0 0.00 0.00 0.00 40 1009.6
20260504043402 58 40 3.0 7.0 0.00 0.00 0.00 39 1009.6
20260504042900 59 39 4.0 5.0 0.00 0.00 0.00 38 1009.8
20260504042356 59 324 6.0 7.0 0.00 0.00 0.00 37 1009.7
20260504041852 60 2 5.0 7.0 0.00 0.00 0.00 36 1009.9
20260504041348 61 26 8.0 14.0 0.00 0.00 0.00 34 1010.2
20260504040845 62 348 3.0 5.0 0.00 0.00 0.00 32 1010.1
20260504040342 62 32 9.0 12.0 0.00 0.00 0.00 31 1009.8
20260504035838 63 342 3.0 3.0 0.00 0.00 0.00 31 1009.8
20260504035337 64 50 3.0 5.0 0.00 0.00 0.00 31 1009.6
20260504034833 64 332 0.0 0.0 0.00 0.00 0.00 28 1009.7
20260504034330 62 30 6.0 7.0 0.00 0.00 0.00 30 1010.1
20260504033827 62 295 3.0 3.0 0.00 0.00 0.00 30 1009.6
20260504033325 62 245 1.0 2.0 0.00 0.00 0.00 30 1009.4
20260504032821 62 235 7.0 9.0 0.00 0.00 0.00 30 1009.3
20260504032319 61 205 6.0 9.0 0.00 0.00 0.00 31 1009.3
20260504031815 61 262 0.0 0.0 0.00 0.00 0.00 32 1008.9
20260504031312 60 319 2.0 3.0 0.00 0.00 0.00 33 1009.4
20260504030803 61 194 1.0 2.0 0.00 0.00 0.00 31 1009.0
20260504030301 62 155 2.0 2.0 0.00 0.00 0.00 32 1008.9
20260504025756 62 163 3.0 3.0 0.00 0.00 0.00 31 1009.0
20260504025254 63 176 3.0 3.0 0.00 0.00 0.00 30 1009.3
20260504024750 63 178 3.0 3.0 0.00 0.00 0.00 30 1009.3
20260504024247 64 175 4.0 5.0 0.00 0.00 0.00 30 1009.3
20260504023743 64 174 3.0 3.0 0.00 0.00 0.00 29 1009.3
20260504023240 65 178 1.0 2.0 0.00 0.00 0.00 29 1009.1
20260504022736 65 185 5.0 5.0 0.00 0.00 0.00 28 1009.3
20260504022232 65 206 4.0 5.0 0.00 0.00 0.00 28 1009.3
20260504021729 65 182 6.0 7.0 0.00 0.00 0.00 28 1009.3
20260504021226 65 178 6.0 9.0 0.00 0.00 0.00 27 1008.9
20260504020724 66 203 6.0 7.0 0.00 0.00 0.00 27 1009.1
20260504020220 66 169 5.0 7.0 0.00 0.00 0.00 26 1009.0
20260504015716 67 143 5.0 7.0 0.00 0.00 0.00 25 1008.8
20260504015213 68 190 6.0 9.0 0.00 0.00 0.00 25 1008.8
20260504014708 68 202 5.0 7.0 0.00 0.00 0.00 25 1009.1
20260504014205 68 183 5.0 7.0 0.00 0.00 0.00 25 1009.1
20260504013703 68 215 5.0 7.0 0.00 0.00 0.00 24 1009.1
20260504013159 69 174 7.0 7.0 0.00 0.00 0.00 24 1009.0
20260504012656 69 200 5.0 9.0 0.00 0.00 0.00 23 1009.1
20260504012154 69 188 3.0 3.0 0.00 0.00 0.00 23 1008.9
20260504011651 69 198 4.0 5.0 0.00 0.00 0.00 23 1009.0
20260504011147 69 169 6.0 7.0 0.00 0.00 0.00 23 1009.0
20260504010643 69 174 5.0 7.0 0.00 0.00 0.00 22 1009.1
20260504010139 70 232 6.0 7.0 0.00 0.00 0.00 22 1009.4
20260504005637 70 218 5.0 5.0 0.00 0.00 0.00 22 1009.1
20260504005133 70 191 7.0 7.0 0.00 0.00 0.00 22 1009.4
20260504004631 70 191 8.0 10.0 0.00 0.00 0.00 21 1009.3
20260504004128 70 200 10.0 12.0 0.00 0.00 0.00 21 1009.3